Погода в Оленовке

Украина / Донецкая область     48°15′40″N   38°16′18″E
темп.,
°C
ветер,
м/с
пор.,
м/с
влажн.,
%
обл.,
%
осадки,
мм/ч
давл.,
гПа
погр.,
м
3 августа, вт
вт300:00+26з11430 0.0 101139
03:00+25зсз1147100 0.0 101117
06:00+24юз005890 0.0 101126
09:00+30з34414 0.0 1012785
12:00+33з453231 0.0 10112359
15:00+28з364473 0.0 1011581
18:00+31зюз463681 0.0 10091555
21:00+21зсз2775100 4.0 1013284
4 августа, ср
ср400:00+21сз49844 0.0 1013340
03:00+19ссв378053 0.0 1014242
06:00+19ссв2579100 0.0 1015170
09:00+23с4558100 0.0 1016600
12:00+27с54350 0.0 10161967
15:00+28с44311 0.0 10162369
18:00+27с4333100 0.0 10162055
21:00+23ссз24425 0.0 1017152
5 августа, чт
чт500:00+21с234911 0.0 101795
03:00+20с2351100 0.0 101764
06:00+19всв23538 0.0 101866
09:00+26вюв3439100 0.0 1017676
12:00+29вюв3329100 0.0 10162366
15:00+30в232655 0.0 10152681
18:00+30в332749 0.0 10141895
21:00+24всв411395 0.0 1013269
6 августа, пт
пт600:00+23вюв4123531 0.0 1013323
03:00+22вюв4113716 0.0 1013272
06:00+22юв413375 0.0 1012330
09:00+28юв711295 0.0 1011604
12:00+33юв682642 0.0 10102011
15:00+35юв67233 0.0 10082821
18:00+34вюв68257 0.0 10071873
21:00+29в7152895 0.0 1007599
7 августа, сб
сб700:00+28вюв8172681 0.1 1006629
03:00+28вюв9183055 0.3 1005620
06:00+25вюв6153922 0.3 1006482
09:00+29юв81329100 0.8 1006928
12:00+31юв6829100 0.0 10061182
15:00+32ююв5628100 0.0 10061480
18:00+22зсз1369100 1.1 1008146
21:00+23ссз3660100 1.3 1007183